Location: Bayou Vista
(29.6905°N, 91.2709°W)
Time: 04:57:46
(UTC+00:00)

Transit 4A - Pass Details

Date: 18 August 2024
Orbit: 867 x 976 km, 66.8° (Epoch: 09 September)

Event Time Altitude Azimuth Distance (km) Brightness Sun altitude
Rises 01:16:18 0° 330° (NNW) 3,588 11.8 -7.7°
Reaches altitude 10° 01:18:50 10° 327° (NNW) 2,657 11.2 -8.2°
Maximum altitude 01:24:55 59° 249° (WSW) 1,091 8.6 -9.4°
Drops below altitude 10° 01:31:06 10° 171° (S) 2,701 10.0 -10.7°
Sets 01:33:43 0° 167° (SSE) 3,651 10.7 -11.2°
